Probability
0 1 3 2 1 3 4 5 6 6 6 6 6 6 6 6 7 9 10 9 5 2 2 2 2 2 2 2 3 4 4 3 1 0 0 0 0 0 0 0 0 0 0
0 1 2 2 1 3 4 4 5 5 5 6 6 6 5 4 5 7 9 8 5 3 3 3 3 2 1 2 3 4 4 3 1 0 0 0 0 0 0 0 0 0 0
0 0 1 1 2 3 4 3 4 5 5 5 6 5 4 3 4 5 6 5 4 3 3 3 3 2 1 1 4 5 4 2 1 0 0 0 0 0 0 0 0 0 0
1 0 1 2 4 5 4 4 5 6 5 4 4 4 3 3 3 3 4 4 4 3 3 3 2 1 0 1 2 3 2 0 0 0 0 0 0 0 0 0 0 0 0
2 1 2 3 5 5 5 5 5 5 5 4 3 3 3 2 2 2 3 4 3 2 2 1 1 0 0 0 1 1 0 0 0 0 0 0 0 0 0 0 0 0 0
2 2 3 4 4 4 4 5 4 4 4 3 3 3 2 1 1 1 1 2 1 1 0 1 1 0 0 0 0 0 0 0 0 0 0 0 0 0 0 1 1 1 0
3 4 6 6 4 4 4 4 3 3 3 3 3 3 2 1 1 1 1 0 0 0 0 0 0 0 0 0 0 0 1 1 0 0 0 0 0 0 1 2 3 1 0
3 5 7 6 5 5 4 3 3 3 3 3 3 3 3 3 1 1 1 0 0 0 0 0 0 0 1 1 1 1 2 2 1 0 0 0 0 1 3 4 4 2 1
4 4 5 5 4 5 4 3 4 4 4 4 4 4 5 5 3 1 0 0 1 1 1 1 1 1 3 3 3 3 3 2 1 0 0 0 0 2 4 5 3 1 0
4 4 3 3 3 4 3 4 5 6 6 5 4 4 5 5 3 1 0 1 2 2 2 2 1 1 3 3 3 3 3 2 0 0 0 0 0 2 4 4 3 1 1
5 4 3 3 3 3 3 3 4 6 7 5 4 4 4 3 1 0 0 2 3 3 2 1 1 2 3 3 1 2 3 2 1 0 0 0 1 2 4 4 4 4 4
4 3 3 3 3 3 3 3 3 4 4 4 3 3 3 2 0 0 1 2 2 1 1 1 2 3 3 2 0 1 1 1 1 0 0 1 2 4 5 5 5 5 6
2 3 3 3 3 3 3 3 3 3 3 3 3 3 3 2 1 1 1 1 1 0 0 1 1 1 1 0 0 0 0 0 0 0 0 2 4 5 6 5 5 5 6
1 1 2 3 3 3 3 3 3 3 3 3 3 3 3 2 2 1 0 0 0 0 0 0 0 0 0 0 0 0 0 0 0 0 0 1 2 3 5 5 5 5 6
0 0 1 2 3 2 3 3 3 3 3 3 3 3 3 2 2 1 0 0 0 0 0 0 0 0 0 0 0 0 0 0 0 0 0 1 2 2 4 5 5 6 7
0 0 1 2 1 1 2 3 3 3 3 3 3 3 3 3 2 1 0 0 0 0 0 0 0 0 0 0 0 0 0 0 0 0 0 1 3 3 4 5 5 6 6
1 1 2 3 2 2 4 5 4 4 4 4 4 3 3 3 2 1 0 0 0 0 0 0 0 0 0 0 0 0 0 0 0 0 0 1 2 3 4 4 5 5 5
4 5 7 8 7 7 8 7 6 6 5 5 5 4 4 4 2 1 0 0 0 0 0 0 0 0 0 0 0 0 0 0 0 0 0 0 1 1 2 3 4 4 4
6 8 12 13 12 13 12 9 7 7 6 6 5 4 4 4 2 0 0 0 0 0 0 0 0 0 0 0 0 0 0 0 0 0 0 0 0 0 1 1 2 3 3
7 10 14 15 15 16 16 13 9 7 6 5 4 3 3 3 2 1 1 0 0 0 0 0 0 0 0 0 0 0 0 0 0 0 0 0 0 1 1 1 1 2 2
9 12 14 14 14 17 18 17 12 7 5 4 3 3 3 3 3 3 2 1 0 0 0 0 0 0 0 0 0 0 0 0 0 0 0 0 1 2 2 2 1 1 2
12 14 15 15 15 18 20 19 15 8 5 3 3 3 3 3 4 4 4 1 0 1 0 0 0 0 0 0 0 0 0 0 0 0 0 0 1 2 3 3 1 0 1
14 15 17 17 17 19 21 21 16 12 9 6 3 2 3 4 5 6 5 2 0 0 0 1 1 1 0 0 0 0 0 0 0 0 0 0 0 1 2 2 1 0 0
14 15 17 18 19 21 23 22 18 15 13 10 6 4 3 4 5 7 5 1 0 0 0 1 1 1 0 0 0 0 0 0 0 0 0 0 0 0 1 1 0 0 0
15 16 18 20 22 25 26 23 19 17 16 16 13 8 5 4 4 5 4 2 1 0 0 0 0 0 0 0 0 0 0 0 0 0 0 0 0 0 0 0 0 0 0
19 18 19 22 24 28 28 24 20 18 18 19 17 12 7 5 4 4 4 3 2 1 0 0 0 0 0 0 0 0 0 0 0 0 0 0 0 0 0 0 0 0 0
Wind_Speed
3 4 9 9 10 10 10 10 10 11 12 13 13 13 14 14 15 15 15 14 14 14 14 13 13 12 12 12 12 12 12 12 11 12 12 11 11 10 10 11 10 8 12
6 5 10 10 10 10 10 10 10 11 12 12 13 13 13 14 14 14 14 14 14 14 14 12 12 12 12 11 11 11 11 11 11 11 11 10 11 10 9 10 10 7 12
8 6 8 10 10 10 10 10 11 11 12 12 12 13 13 13 14 14 13 13 13 13 13 12 12 12 11 11 11 11 10 10 10 10 10 5 7 10 9 10 10 11 11
9 6 8 11 11 11 11 11 11 11 12 12 12 12 12 12 13 13 12 12 12 12 12 12 11 11 10 10 10 10 9 9 9 9 5 4 4 10 10 10 10 11 11
8 6 8 12 11 11 11 11 11 11 11 11 11 11 11 12 12 12 12 12 11 11 11 11 10 10 10 9 9 9 8 8 8 6 3 3 3 9 11 11 11 11 11
8 6 8 13 12 11 11 11 11 11 10 10 10 10 11 11 11 11 11 11 11 10 9 9 9 9 9 8 8 8 7 7 6 3 3 4 4 9 11 11 11 10 10
8 6 8 13 12 11 11 10 10 10 10 10 10 10 10 10 10 10 10 10 10 9 9 9 9 8 8 7 7 6 6 6 4 3 3 4 5 10 11 11 11 10 10
10 7 7 12 12 11 10 10 10 9 9 9 9 9 9 9 9 9 9 9 9 8 8 8 8 8 7 6 6 5 5 6 5 5 3 4 7 10 11 10 10 10 10
9 7 5 5 7 10 10 9 9 9 8 8 8 8 8 8 8 8 8 8 9 9 8 8 7 7 6 5 5 4 5 6 4 3 4 3 8 11 11 11 11 10 10
7 6 5 4 4 4 5 8 8 8 7 7 7 7 7 7 7 7 7 7 8 8 8 7 6 6 6 5 4 5 5 5 3 3 2 4 9 11 11 11 10 10 10
6 4 4 4 4 3 3 6 6 6 6 6 5 6 5 2 2 3 5 7 7 7 7 7 6 6 5 5 5 5 4 2 3 2 2 6 9 10 10 10 10 10 10
7 6 4 5 4 4 4 3 2 2 2 2 1 2 2 2 2 3 5 6 6 6 6 6 7 6 4 2 3 5 2 3 3 2 3 8 9 10 10 9 9 9 10
8 7 5 5 5 4 2 3 1 1 1 1 2 2 2 1 1 1 1 2 2 3 2 3 3 2 2 2 2 2 3 3 2 2 3 8 9 9 9 9 9 9 10
8 7 6 6 5 4 3 3 2 1 1 1 1 2 2 1 1 1 1 1 1 1 1 1 1 2 2 3 4 4 4 3 3 2 3 8 8 9 9 9 8 9 10
8 7 7 6 5 4 3 2 3 2 2 2 2 2 2 2 2 1 1 1 1 1 1 1 1 1 2 3 4 4 4 4 4 3 3 7 7 7 7 8 8 9 9
8 7 6 6 5 5 4 3 3 2 2 2 2 2 2 2 2 2 2 1 1 1 1 2 2 1 1 2 3 3 4 4 4 4 3 4 7 7 7 7 7 8 8
8 7 7 6 5 5 4 4 3 3 3 2 2 2 2 2 2 2 2 1 1 1 1 1 1 1 1 2 2 2 3 3 4 4 4 3 3 5 6 7 7 7 7
8 7 7 7 6 5 4 3 3 3 3 2 2 1 2 2 2 2 2 1 1 1 1 1 1 1 1 1 1 1 2 2 4 4 4 4 3 3 4 7 7 7 7
9 8 7 6 6 5 4 3 3 3 3 2 2 1 1 2 2 3 2 1 1 2 1 1 1 1 1 1 1 1 1 2 3 4 5 5 4 4 3 5 7 6 6
8 8 7 6 5 5 3 2 2 2 1 1 2 1 2 2 2 3 2 1 2 2 1 1 2 1 1 1 1 0 1 2 2 3 4 4 4 5 4 4 3 4 6
8 8 7 6 5 4 3 3 2 2 1 1 1 1 2 2 2 2 2 1 2 2 1 1 2 1 1 1 2 2 2 1 1 2 3 3 4 4 4 4 3 2 2
9 8 7 7 6 5 4 3 3 3 2 2 1 1 2 2 2 3 2 2 2 2 1 1 2 1 0 1 2 1 2 3 2 0 1 3 3 3 3 5 4 3 2
9 9 8 8 7 6 5 3 3 2 2 1 1 1 1 2 2 2 3 2 2 2 1 1 1 2 1 0 1 3 2 2 2 2 1 1 1 2 2 2 3 3 3
9 9 8 7 7 6 6 5 5 4 3 3 2 1 1 1 2 3 3 3 2 1 1 0 1 1 2 0 1 0 2 3 2 1 2 1 1 1 2 2 3 3 3
8 8 7 7 6 6 6 6 6 4 3 2 2 2 1 1 1 2 2 2 2 2 1 1 1 1 1 1 1 0 0 1 1 2 1 2 1 1 1 1 2 2 3
6 6 7 7 6 6 6 6 6 6 5 4 3 3 2 1 1 1 2 2 2 2 2 1 1 1 1 1 1 1 1 1 1 2 2 1 1 1 1 0 1 1 2
Wind_Direction
148 154 133 121 114 109 104 102 101 103 104 105 105 107 110 110 110 114 122 123 127 131 131 132 132 129 129 129 130 132 131 130 133 134 133 132 134 134 131 130 126 124 127
149 148 130 121 114 108 106 105 104 106 108 108 108 110 112 112 114 117 120 124 128 131 133 134 133 130 129 130 132 134 133 131 131 134 136 137 137 135 135 132 134 132 133
135 137 128 121 115 111 109 108 106 107 110 111 112 113 114 115 116 119 122 125 129 132 134 134 133 131 132 131 132 136 136 135 131 132 132 132 138 139 139 138 139 136 135
133 132 127 122 117 114 111 108 108 110 112 113 114 115 117 120 122 124 125 126 128 131 134 135 135 135 136 136 138 139 140 140 136 136 131 133 142 143 143 141 140 139 140
129 131 131 123 119 116 115 111 110 112 114 115 116 118 121 124 125 127 129 129 129 131 133 137 139 141 141 142 142 143 145 146 142 137 135 137 144 150 150 147 145 146 146
132 134 133 127 124 121 120 117 113 113 116 116 118 120 124 127 129 131 134 133 134 136 139 141 143 144 145 144 144 147 151 154 145 134 141 146 154 159 157 154 152 151 149
135 136 135 130 129 126 124 122 118 117 119 119 119 123 127 132 135 136 139 141 142 145 147 148 149 150 150 149 150 151 157 165 144 139 151 158 168 164 161 159 157 157 155
142 144 140 137 134 132 130 126 125 125 124 126 127 129 132 138 140 142 146 149 151 154 155 154 156 157 159 158 158 162 168 165 151 155 159 170 173 169 165 163 162 163 163
142 143 143 145 140 137 135 132 131 130 131 134 138 137 138 142 148 153 156 158 161 162 164 166 163 165 169 172 172 168 161 164 144 151 167 172 178 174 170 169 169 170 172
137 144 144 144 143 143 142 139 137 137 137 140 146 146 143 147 154 162 163 168 169 170 173 177 178 180 181 184 183 169 162 161 151 160 167 179 174 174 174 174 175 175 177
139 147 144 146 147 153 154 154 148 147 148 148 150 151 142 129 151 167 170 173 177 182 185 189 194 196 194 195 192 182 175 160 159 157 172 182 177 175 176 179 181 181 182
156 161 162 157 157 158 165 150 148 148 142 133 128 143 136 150 177 177 179 177 182 187 194 201 208 208 205 189 195 193 176 167 168 174 182 181 180 181 181 183 187 187 188
161 160 167 166 164 165 164 152 162 136 117 120 129 135 137 143 163 155 150 179 194 198 199 211 217 214 194 183 186 178 176 172 167 185 185 183 183 183 184 185 187 190 194
156 163 166 166 164 169 159 157 161 149 138 151 157 140 135 137 136 146 154 174 191 202 182 190 203 201 191 189 182 181 178 176 170 169 187 187 188 187 189 192 192 192 192
159 163 166 160 160 163 151 157 148 157 159 164 142 139 139 141 148 156 160 165 186 174 171 177 183 172 173 187 187 182 180 175 177 173 182 183 180 181 187 194 200 199 194
162 164 162 158 159 152 151 151 149 154 160 154 145 150 146 149 146 140 131 138 160 174 175 162 167 162 169 171 176 178 177 173 182 179 181 186 186 187 189 192 199 196 191
161 158 157 160 158 154 150 153 146 149 144 149 164 157 144 139 134 133 131 136 165 163 143 116 101 110 132 143 158 169 164 171 175 177 177 178 190 195 192 193 200 197 190
151 152 159 158 155 152 146 145 143 139 138 143 151 148 143 135 131 127 126 144 159 122 119 123 110 106 108 125 156 183 172 175 182 182 180 182 186 193 198 195 203 202 201
156 158 159 154 156 154 149 138 132 127 131 136 139 146 154 137 126 122 123 128 115 103 95 129 100 119 124 132 174 191 197 195 192 187 187 190 189 187 191 202 205 206 209
156 158 159 156 159 152 141 120 108 104 122 125 134 146 150 139 125 122 123 116 100 90 78 88 97 92 134 167 152 120 237 214 189 190 195 193 192 192 196 203 206 218 216
157 158 162 159 164 157 151 151 141 153 158 141 137 134 132 133 135 130 124 113 104 103 117 117 114 93 50 65 65 19 351 312 197 196 193 186 193 195 189 196 201 206 226
168 168 166 166 166 167 170 167 155 151 161 162 154 123 137 125 128 137 124 125 114 107 83 75 102 96 34 92 121 88 6 351 342 252 185 187 201 192 192 196 193 201 209
174 176 173 173 169 169 160 141 121 95 78 87 110 163 175 144 133 122 122 119 105 117 127 120 130 133 156 315 133 139 146 228 302 332 320 174 180 186 200 196 195 198 196
181 175 170 172 169 168 157 149 148 151 159 180 174 163 143 133 137 135 136 125 126 116 104 109 116 133 136 176 324 94 159 168 162 311 340 347 205 188 210 201 191 187 188
175 171 171 168 170 167 162 162 158 163 172 161 144 135 146 148 157 151 147 150 142 131 133 124 89 110 138 155 162 166 63 65 116 141 270 319 339 302 233 196 181 184 190
164 167 167 163 172 172 166 166 168 170 170 155 156 158 168 172 179 160 149 158 147 145 159 159 145 114 121 122 129 131 145 152 182 150 179 234 270 290 284 219 174 194 199